Regional Weather Roundup
Issued by NWS

Home | Current Version | Previous Version | Text Only | Print | Product List | Glossary Off
Versions: 1 2 3 4 5 6 7 8 9 10 11 12 13 14 15 16 17 18 19 20 21 22 23 24 25 26 27 28 29 30 31 32 33 34 35 36 37 38 39 40 41 42 43 44 45 46 47 48 49 50

000
ASUS45 KCYS 011010
RWRWY

WYOMING REGIONAL WEATHER ROUNDUP
NATIONAL WEATHER SERVICE CHEYENNE WY
400 AM MDT WED JUL 01 2015

NOTE:  "FAIR" INDICATES FEW OR NO CLOUDS BELOW 12,000 FEET
WITH NO SIGNIFICANT WEATHER AND/OR OBSTRUCTIONS TO VISIBILITY.

WYZ001-011100-
YELLOWSTONE NATIONAL PARK

CITY           SKY/WX    TMP DP  RH WIND       PRES   REMARKS
LK YELLOWSTONE   N/A     48  44  86 CALM      30.35S
W YELLOWSTONE  NOT AVBL

$$
WYZ002>013-054>058-071-098>099-011100-
NORTHERN WYOMING

CITY           SKY/WX    TMP DP  RH WIND       PRES   REMARKS
JACKSON        CLOUDY    54  50  87 CALM      30.26S
CODY           FAIR      61  46  59 S3        30.13S
GREYBULL       FAIR      66  54  65 S3        30.03S
WORLAND        FAIR      64  58  80 S7        30.05R
SHERIDAN       FAIR      59  50  72 S7        30.06F
BUFFALO        FAIR      68  44  42 NW9       30.13S
GILLETTE       FAIR      58  50  75 CALM      30.06S
HULETT         FAIR      61  54  77 S8        30.04S
NEWCASTLE      FAIR      61  54  77 N9        30.03S

$$
WYZ014>020-022>026-101>103-011100-
CENTRAL WYOMING

CITY           SKY/WX    TMP DP  RH WIND       PRES   REMARKS
BIG PINEY      FAIR      58  48  69 E5        30.28S
PINEDALE       FAIR      52  46  82 NW3       30.29F
DUBOIS         PTSUNNY   54  43  66 NW10      30.29S
LANDER         FAIR      61  53  75 SE5       30.15S
RIVERTON       FAIR      62  56  80 CALM      30.16S
CASPER         FAIR      60  51  72 W8        30.14R
DOUGLAS        FAIR      59  54  83 N7        30.11R

$$
WYZ021-027>030-104>119-011100-
SOUTHERN WYOMING

CITY           SKY/WX    TMP DP  RH WIND       PRES   REMARKS
EVANSTON       FAIR      66  47  50 S6        30.29F
KEMMERER       FAIR      61  46  59 NW3       30.30F
FORT BRIDGER   MOSUNNY   66  48  52 W8        30.31F
ROCK SPRINGS   FAIR      59  53  80 W7        30.26R
DIXON          FAIR      58  52  79 E7        30.26S
RAWLINS        FAIR      55  53  93 N5        30.25S
SARATOGA       FAIR      57  50  77 S3        30.28R
LARAMIE        FAIR      52  50  93 S3        30.27R
CHEYENNE       FAIR      62  53  72 W12       30.15R
TORRINGTON     FAIR      62  57  83 W5        30.01R
PINE BLUFFS    FAIR      55  54  94 CALM      30.09R

$$


USA.gov is the U.S. government's official web portal to all federal, state and local government web resources and services.